SCP
0 0 0 0 0 1 2 2 2 2 2 2 1 0 0 0 0 1 0 0 -0 1 1 0 1 1 1 1 0 1 1 1 1 1 0 1 0 0 0 1 0 0 0
0 0 0 0 1 2 3 2 2 2 3 2 0 0 0 0 0 1 0 0 0 1 1 1 1 1 1 2 1 1 1 1 1 1 1 0 1 1 1 2 1 0 0
0 0 0 0 0 1 2 2 1 3 3 1 1 1 1 1 0 1 1 1 1 1 1 1 1 1 1 1 2 2 1 1 1 1 1 0 0 0 1 1 1 0 0
0 0 0 0 0 0 1 1 1 3 2 2 1 1 1 1 0 0 1 1 1 0 1 1 1 1 1 1 1 1 1 1 1 1 0 0 0 0 0 1 1 0 0
0 0 0 0 0 0 0 1 2 3 2 2 3 2 2 0 0 0 1 1 2 1 1 1 1 2 2 1 1 1 1 1 1 1 1 0 0 0 0 0 1 0 0
0 0 0 0 0 0 0 1 1 2 3 2 1 3 2 0 1 0 1 1 1 1 1 1 1 2 2 1 1 1 1 1 1 1 1 0 0 0 0 0 0 0 0
0 0 0 0 0 0 0 1 2 3 3 3 2 2 4 1 1 2 2 1 1 1 1 2 3 3 2 2 1 2 1 1 1 1 1 1 1 1 1 0 0 0 0
0 0 0 0 0 0 1 1 2 2 3 4 4 3 5 4 3 3 3 1 1 1 2 2 2 2 2 2 2 2 2 1 1 1 1 1 0 1 1 0 0 0 0
0 0 0 0 0 0 1 1 1 1 1 1 2 2 2 2 2 2 2 2 2 1 1 1 1 1 1 1 1 2 1 1 1 1 1 1 0 0 0 1 0 0 0
0 0 0 0 0 0 1 0 0 0 1 2 2 2 2 2 3 4 3 2 2 1 1 1 1 1 1 1 1 1 1 1 1 1 1 1 1 0 1 1 1 0 0
0 0 0 0 0 0 0 0 0 1 1 1 1 1 1 2 2 4 3 3 3 3 2 1 1 1 1 1 1 1 1 0 1 1 1 1 1 1 0 1 1 1 0
0 0 0 0 0 0 0 0 0 0 0 1 1 1 2 2 3 3 3 3 3 2 2 1 1 0 0 0 0 0 0 0 1 0 1 1 1 1 1 1 1 1 1
0 0 0 0 0 0 0 0 0 0 0 0 0 2 3 3 3 3 3 3 2 2 1 1 1 0 0 0 0 0 0 0 0 0 0 1 1 1 1 1 1 1 1
0 0 0 0 0 0 0 0 0 0 1 1 0 1 3 3 4 5 4 3 3 2 1 1 1 0 0 0 0 0 0 0 0 0 0 0 1 1 1 1 1 1 0
0 0 0 0 0 0 0 0 0 0 0 0 0 2 3 3 4 4 5 4 2 2 1 1 1 1 0 0 0 0 0 0 0 0 0 0 0 0 1 1 1 1 0
0 0 0 0 0 0 0 0 0 0 0 0 0 0 1 3 1 2 2 2 3 2 2 1 1 1 0 0 0 0 0 0 0 0 0 0 0 0 0 0 0 1 0
-0 0 0 0 0 0 0 0 0 0 0 0 0 0 0 0 1 1 1 1 1 2 1 1 1 1 1 0 0 0 0 0 0 0 0 0 0 0 0 0 0 0 0
0 0 0 0 0 0 0 0 0 0 0 0 0 0 0 0 0 0 0 0 1 1 1 1 1 1 1 0 0 0 0 0 0 0 0 0 0 0 0 0 0 0 0
0 0 0 0 0 0 0 0 0 0 0 0 0 0 0 0 0 0 0 0 0 0 0 0 1 1 1 0 0 0 0 0 0 0 0 0 0 0 0 0 0 0 1
-0 0 0 0 0 0 0 0 0 0 0 0 0 0 0 0 0 0 0 0 0 0 0 0 0 0 0 0 0 0 0 0 0 0 0 0 0 0 0 0 0 0 1
0 0 0 0 0 0 0 0 0 0 0 0 0 0 0 0 0 0 0 0 0 0 0 0 0 0 1 1 0 0 0 0 0 0 0 0 0 0 0 0 0 0 0
0 0 0 0 0 0 0 0 0 0 0 0 0 0 0 0 0 0 0 0 0 0 0 0 0 0 0 0 0 0 0 0 0 0 0 0 0 0 0 0 0 0 0
0 0 0 0 0 0 0 0 0 0 0 0 0 0 0 0 0 0 0 0 0 0 0 0 0 0 0 0 0 0 0 0 0 0 0 0 0 0 0 0 0 0 0
0 0 0 0 0 0 0 0 0 0 0 0 0 0 0 0 0 0 0 0 0 0 0 0 0 0 0 0 0 0 0 0 0 0 0 0 0 0 0 0 0 0 0
0 0 0 0 0 0 0 0 0 0 0 0 0 0 0 0 0 0 0 0 0 0 0 0 0 0 0 0 0 0 0 0 0 0 0 0 0 0 0 0 0 0 0
0 0 0 0 0 0 0 0 0 0 0 0 0 0 0 0 0 0 0 0 0 0 0 0 0 0 0 0 0 0 0 0 0 0 0 0 0 0 0 0 0 0 0
Wind_Speed_500mb
42 43 46 46 43 40 51 56 47 46 38 31 26 15 19 20 25 31 20 28 16 18 21 19 25 24 35 43 44 45 38 41 38 37 38 29 31 28 32 40 40 50 43
35 43 36 37 43 44 52 52 55 52 51 42 32 24 26 28 14 21 9 15 6 13 11 16 21 22 18 26 30 48 42 39 38 37 33 43 37 39 36 46 43 42 43
39 43 38 35 37 47 54 53 53 57 58 49 41 38 21 20 18 10 15 18 14 15 15 16 15 21 22 20 26 24 35 44 46 47 49 26 21 38 38 54 53 47 52
37 41 44 41 41 52 58 55 56 61 64 54 49 47 42 29 26 27 31 32 20 19 25 24 26 29 26 24 24 27 33 32 37 47 57 58 53 33 21 39 48 50 52
43 37 40 30 33 44 53 56 57 60 64 63 52 49 44 43 32 27 26 30 31 28 26 23 24 30 31 33 31 36 34 39 34 34 42 45 54 65 53 34 25 42 46
47 44 34 33 29 40 57 53 51 63 59 57 64 49 49 47 37 39 28 30 26 20 24 22 30 33 33 30 33 41 43 44 42 41 40 42 49 55 61 61 53 41 49
32 28 27 21 24 36 39 49 47 56 60 52 56 62 49 46 49 35 47 33 21 26 22 25 27 31 23 26 30 35 41 44 46 44 47 49 55 59 63 60 61 52 40
32 34 31 28 36 34 30 34 42 53 65 62 57 50 62 61 59 60 43 44 37 32 26 28 30 29 33 32 30 37 40 43 46 49 50 50 51 55 54 55 51 45 33
35 32 34 38 36 38 35 38 28 28 33 46 50 51 52 58 56 47 41 41 44 45 44 43 41 40 33 33 35 39 42 45 48 52 54 56 53 52 54 52 49 46 32
36 36 34 36 29 36 35 26 27 24 22 31 32 37 41 43 44 39 44 48 50 52 51 45 41 35 32 32 34 37 41 44 50 52 51 55 56 51 47 48 55 52 57
37 48 35 31 46 28 30 29 32 28 27 29 32 32 37 41 44 45 55 55 56 57 56 50 43 35 32 32 33 36 39 47 52 55 56 54 53 58 46 49 49 47 54
45 49 54 53 49 44 34 30 22 22 24 29 42 46 49 48 50 51 54 58 62 61 57 51 40 36 34 30 31 34 38 41 41 46 48 55 53 54 52 51 53 49 45
16 31 26 32 38 28 18 21 38 38 38 41 42 48 57 60 59 58 56 55 51 52 53 48 44 40 36 33 32 34 36 37 43 48 43 54 57 59 54 54 54 51 43
54 50 20 29 14 5 20 37 30 26 30 31 52 52 48 63 72 66 58 61 56 52 48 47 46 43 41 41 38 38 38 41 41 47 56 52 54 54 59 59 56 53 46
55 57 53 66 47 23 20 19 19 18 18 25 27 31 37 40 55 54 55 48 53 56 54 52 49 48 47 47 47 44 41 40 42 43 46 57 54 53 54 58 63 54 50
43 51 50 50 23 6 6 3 5 9 20 29 33 33 20 27 37 44 51 56 55 54 56 58 58 56 56 56 52 52 56 58 61 58 53 55 65 70 55 55 58 61 50
46 38 34 54 44 6 6 7 14 24 29 33 41 40 43 45 39 41 50 59 60 64 68 72 73 73 71 69 68 66 69 71 73 72 69 61 56 66 59 57 62 62 60
13 8 5 15 16 16 17 22 24 33 37 43 44 49 53 56 58 61 65 70 69 69 73 77 77 77 76 73 72 72 73 76 77 79 73 69 63 60 67 68 56 63 65
30 23 19 27 29 30 28 33 39 43 47 50 54 56 57 62 64 67 70 74 75 81 83 83 81 82 81 75 76 72 73 76 78 78 75 69 64 60 63 69 69 69 63
27 31 45 40 40 41 42 43 45 52 59 55 57 58 59 59 63 68 71 73 74 78 77 81 84 84 82 75 76 77 76 78 78 72 68 63 61 59 57 61 64 66 71
45 42 47 48 48 44 45 49 50 53 57 61 61 63 63 62 65 65 62 68 70 77 73 77 84 85 79 68 66 72 74 76 69 68 66 61 57 56 55 60 66 71 65
48 55 58 56 45 41 45 49 51 49 54 64 70 75 78 81 73 77 81 74 73 72 75 90 83 77 79 83 75 76 74 68 73 74 69 64 58 51 60 62 66 67 63
57 56 55 58 58 55 52 62 73 76 78 72 76 77 76 74 76 79 88 89 91 79 81 73 77 80 84 81 84 81 98 99 101 104 99 87 76 66 58 64 59 55 62
54 56 56 57 64 62 67 71 67 69 75 89 85 80 90 95 94 91 90 82 80 83 84 79 82 75 79 72 55 59 56 57 63 69 77 73 70 69 72 62 55 54 59
60 58 60 64 72 72 79 82 87 84 82 85 88 90 90 87 88 89 87 84 86 82 82 83 74 82 73 67 72 70 63 62 64 69 66 78 79 77 80 78 62 62 68
62 64 69 76 83 80 81 82 76 76 79 81 81 83 84 84 85 86 89 86 87 88 93 78 93 88 80 73 65 80 71 48 42 46 55 56 63 77 70 74 71 74 74
Wind_Direction_500mb
248 236 236 219 216 220 213 214 203 202 203 209 195 206 216 238 232 251 214 154 161 196 207 200 219 235 236 238 230 241 238 230 247 257 257 256 254 247 255 231 231 214 228
226 235 211 211 216 219 208 210 206 204 201 196 192 206 225 221 214 226 247 150 103 176 227 208 210 259 254 249 249 245 245 248 245 264 272 262 256 258 243 232 233 221 222
219 215 206 210 215 215 209 213 213 206 205 202 196 210 203 211 188 186 212 258 209 204 206 235 216 240 248 269 283 276 261 267 256 256 261 246 272 271 246 241 236 228 218
218 219 206 200 206 220 225 223 217 205 210 196 203 208 211 210 223 238 240 224 212 204 221 243 240 246 250 259 259 275 286 290 276 264 264 255 247 278 285 241 232 224 224
235 222 228 221 213 218 215 217 209 201 212 209 194 205 212 212 223 234 200 170 184 207 216 225 244 253 257 252 251 259 268 279 286 275 262 263 258 250 264 275 263 236 231
213 229 216 212 213 228 207 208 210 204 207 218 205 198 215 212 219 224 214 209 224 253 248 254 244 239 256 260 254 260 260 261 270 271 271 264 268 264 257 256 262 258 260
212 215 207 197 214 220 203 189 204 198 206 210 221 208 204 219 218 216 212 215 217 240 240 233 220 254 262 264 256 258 263 265 265 265 267 266 263 269 273 263 260 257 265
207 213 196 206 196 199 182 197 211 213 204 200 204 214 208 210 213 219 215 230 222 218 237 222 224 243 264 265 263 269 269 269 270 271 267 268 266 267 270 268 257 264 256
202 218 197 205 179 181 180 186 193 194 202 211 215 218 216 216 224 224 220 212 214 217 224 235 247 260 272 271 258 263 266 266 268 268 268 274 273 271 265 266 262 249 271
207 222 189 173 174 168 168 165 176 189 203 196 210 210 214 206 204 217 215 228 229 224 233 237 245 259 268 279 279 266 260 270 271 269 270 268 275 275 273 270 268 261 252
234 205 207 203 196 177 194 199 220 217 212 221 224 227 233 236 224 217 223 233 229 231 235 236 245 253 267 279 282 279 266 258 262 271 271 270 267 271 274 276 276 264 258
245 230 204 207 192 204 207 221 225 237 240 241 237 237 236 235 245 244 241 239 237 236 237 240 240 248 259 266 274 278 273 258 266 277 273 270 272 269 273 272 271 273 268
280 253 239 204 187 177 195 243 245 251 248 257 267 253 238 239 238 243 241 237 234 238 244 241 240 246 252 258 269 280 281 269 259 260 273 269 278 271 268 271 271 272 269
326 334 347 316 259 229 224 254 273 261 259 267 273 269 256 241 237 231 232 240 235 233 236 240 243 243 244 250 259 268 273 273 271 261 259 274 272 268 273 269 270 267 264
302 311 320 312 296 286 270 247 250 257 251 263 269 266 265 261 231 224 227 230 240 240 238 239 240 246 246 247 253 262 271 277 276 277 269 262 270 273 277 266 266 267 263
288 284 288 296 317 354 92 165 237 310 276 282 299 293 271 263 246 242 238 244 241 241 241 244 244 244 247 249 252 256 260 269 274 281 277 269 261 254 265 267 264 268 263
264 256 269 251 285 318 320 342 307 295 289 280 279 279 281 275 268 261 259 242 241 247 250 253 255 254 250 249 249 251 259 266 273 276 281 272 269 261 258 265 261 260 262
324 199 175 249 270 293 308 313 296 283 281 279 277 273 274 273 269 270 267 264 259 256 256 257 255 254 253 253 253 255 258 266 266 270 274 271 269 266 254 250 259 258 251
326 322 316 298 300 298 305 299 289 288 282 275 271 270 270 266 265 265 265 262 260 258 257 255 254 254 254 254 256 259 257 258 262 266 272 271 268 267 262 251 252 255 256
289 305 301 286 288 291 292 280 276 276 275 275 274 273 271 272 271 269 267 265 261 261 260 257 255 255 256 253 255 256 253 256 259 262 269 268 268 269 261 251 248 250 250
305 298 291 287 286 290 285 280 274 270 276 277 275 274 274 273 268 265 266 266 262 261 258 257 256 254 254 253 252 250 251 251 254 258 264 266 270 264 264 245 244 249 254
310 307 307 306 303 297 292 287 280 277 272 272 272 272 270 266 266 265 264 261 263 261 265 261 257 252 251 251 247 251 250 250 254 254 256 262 259 262 261 253 249 246 250
302 298 298 298 291 294 293 283 280 283 281 276 271 271 273 269 267 267 270 271 266 265 265 258 256 255 251 254 264 262 254 254 259 261 263 261 258 248 259 256 245 243 245
299 297 295 294 291 289 287 284 277 269 271 273 273 272 270 272 270 269 267 263 261 258 257 257 256 258 253 250 250 253 251 257 259 258 257 252 254 252 244 249 248 242 243
302 299 294 292 290 284 278 278 279 280 277 278 275 273 274 274 274 271 266 259 258 254 253 252 254 250 254 247 245 253 255 252 256 251 248 248 247 245 242 244 241 232 231
294 290 288 285 288 291 291 288 285 285 284 279 276 274 274 274 273 272 273 271 268 262 250 248 250 247 242 242 247 239 240 244 248 237 238 246 252 243 236 236 228 218 219
Wind_Speed_850mb
42 43 46 46 43 40 51 56 47 46 38 31 26 15 19 20 25 31 20 28 16 18 21 19 25 24 35 43 44 45 38 41 38 37 38 29 31 28 32 40 40 50 43
35 43 36 37 43 44 52 52 55 52 51 42 32 24 26 28 14 21 9 15 6 13 11 16 21 22 18 26 30 48 42 39 38 37 33 43 37 39 36 46 43 42 43
39 43 38 35 37 47 54 53 53 57 58 49 41 38 21 20 18 10 15 18 14 15 15 16 15 21 22 20 26 24 35 44 46 47 49 26 21 38 38 54 53 47 52
37 41 44 41 41 52 58 55 56 61 64 54 49 47 42 29 26 27 31 32 20 19 25 24 26 29 26 24 24 27 33 32 37 47 57 58 53 33 21 39 48 50 52
43 37 40 30 33 44 53 56 57 60 64 63 52 49 44 43 32 27 26 30 31 28 26 23 24 30 31 33 31 36 34 39 34 34 42 45 54 65 53 34 25 42 46
47 44 34 33 29 40 57 53 51 63 59 57 64 49 49 47 37 39 28 30 26 20 24 22 30 33 33 30 33 41 43 44 42 41 40 42 49 55 61 61 53 41 49
32 28 27 21 24 36 39 49 47 56 60 52 56 62 49 46 49 35 47 33 21 26 22 25 27 31 23 26 30 35 41 44 46 44 47 49 55 59 63 60 61 52 40
32 34 31 28 36 34 30 34 42 53 65 62 57 50 62 61 59 60 43 44 37 32 26 28 30 29 33 32 30 37 40 43 46 49 50 50 51 55 54 55 51 45 33
35 32 34 38 36 38 35 38 28 28 33 46 50 51 52 58 56 47 41 41 44 45 44 43 41 40 33 33 35 39 42 45 48 52 54 56 53 52 54 52 49 46 32
36 36 34 36 29 36 35 26 27 24 22 31 32 37 41 43 44 39 44 48 50 52 51 45 41 35 32 32 34 37 41 44 50 52 51 55 56 51 47 48 55 52 57
37 48 35 31 46 28 30 29 32 28 27 29 32 32 37 41 44 45 55 55 56 57 56 50 43 35 32 32 33 36 39 47 52 55 56 54 53 58 46 49 49 47 54
45 49 54 53 49 44 34 30 22 22 24 29 42 46 49 48 50 51 54 58 62 61 57 51 40 36 34 30 31 34 38 41 41 46 48 55 53 54 52 51 53 49 45
16 31 26 32 38 28 18 21 38 38 38 41 42 48 57 60 59 58 56 55 51 52 53 48 44 40 36 33 32 34 36 37 43 48 43 54 57 59 54 54 54 51 43
54 50 20 29 14 5 20 37 30 26 30 31 52 52 48 63 72 66 58 61 56 52 48 47 46 43 41 41 38 38 38 41 41 47 56 52 54 54 59 59 56 53 46
55 57 53 66 47 23 20 19 19 18 18 25 27 31 37 40 55 54 55 48 53 56 54 52 49 48 47 47 47 44 41 40 42 43 46 57 54 53 54 58 63 54 50
43 51 50 50 23 6 6 3 5 9 20 29 33 33 20 27 37 44 51 56 55 54 56 58 58 56 56 56 52 52 56 58 61 58 53 55 65 70 55 55 58 61 50
46 38 34 54 44 6 6 7 14 24 29 33 41 40 43 45 39 41 50 59 60 64 68 72 73 73 71 69 68 66 69 71 73 72 69 61 56 66 59 57 62 62 60
13 8 5 15 16 16 17 22 24 33 37 43 44 49 53 56 58 61 65 70 69 69 73 77 77 77 76 73 72 72 73 76 77 79 73 69 63 60 67 68 56 63 65
30 23 19 27 29 30 28 33 39 43 47 50 54 56 57 62 64 67 70 74 75 81 83 83 81 82 81 75 76 72 73 76 78 78 75 69 64 60 63 69 69 69 63
27 31 45 40 40 41 42 43 45 52 59 55 57 58 59 59 63 68 71 73 74 78 77 81 84 84 82 75 76 77 76 78 78 72 68 63 61 59 57 61 64 66 71
45 42 47 48 48 44 45 49 50 53 57 61 61 63 63 62 65 65 62 68 70 77 73 77 84 85 79 68 66 72 74 76 69 68 66 61 57 56 55 60 66 71 65
48 55 58 56 45 41 45 49 51 49 54 64 70 75 78 81 73 77 81 74 73 72 75 90 83 77 79 83 75 76 74 68 73 74 69 64 58 51 60 62 66 67 63
57 56 55 58 58 55 52 62 73 76 78 72 76 77 76 74 76 79 88 89 91 79 81 73 77 80 84 81 84 81 98 99 101 104 99 87 76 66 58 64 59 55 62
54 56 56 57 64 62 67 71 67 69 75 89 85 80 90 95 94 91 90 82 80 83 84 79 82 75 79 72 55 59 56 57 63 69 77 73 70 69 72 62 55 54 59
60 58 60 64 72 72 79 82 87 84 82 85 88 90 90 87 88 89 87 84 86 82 82 83 74 82 73 67 72 70 63 62 64 69 66 78 79 77 80 78 62 62 68
62 64 69 76 83 80 81 82 76 76 79 81 81 83 84 84 85 86 89 86 87 88 93 78 93 88 80 73 65 80 71 48 42 46 55 56 63 77 70 74 71 74 74
Wind_Direction_850mb
248 236 236 219 216 220 213 214 203 202 203 209 195 206 216 238 232 251 214 154 161 196 207 200 219 235 236 238 230 241 238 230 247 257 257 256 254 247 255 231 231 214 228
226 235 211 211 216 219 208 210 206 204 201 196 192 206 225 221 214 226 247 150 103 176 227 208 210 259 254 249 249 245 245 248 245 264 272 262 256 258 243 232 233 221 222
219 215 206 210 215 215 209 213 213 206 205 202 196 210 203 211 188 186 212 258 209 204 206 235 216 240 248 269 283 276 261 267 256 256 261 246 272 271 246 241 236 228 218
218 219 206 200 206 220 225 223 217 205 210 196 203 208 211 210 223 238 240 224 212 204 221 243 240 246 250 259 259 275 286 290 276 264 264 255 247 278 285 241 232 224 224
235 222 228 221 213 218 215 217 209 201 212 209 194 205 212 212 223 234 200 170 184 207 216 225 244 253 257 252 251 259 268 279 286 275 262 263 258 250 264 275 263 236 231
213 229 216 212 213 228 207 208 210 204 207 218 205 198 215 212 219 224 214 209 224 253 248 254 244 239 256 260 254 260 260 261 270 271 271 264 268 264 257 256 262 258 260
212 215 207 197 214 220 203 189 204 198 206 210 221 208 204 219 218 216 212 215 217 240 240 233 220 254 262 264 256 258 263 265 265 265 267 266 263 269 273 263 260 257 265
207 213 196 206 196 199 182 197 211 213 204 200 204 214 208 210 213 219 215 230 222 218 237 222 224 243 264 265 263 269 269 269 270 271 267 268 266 267 270 268 257 264 256
202 218 197 205 179 181 180 186 193 194 202 211 215 218 216 216 224 224 220 212 214 217 224 235 247 260 272 271 258 263 266 266 268 268 268 274 273 271 265 266 262 249 271
207 222 189 173 174 168 168 165 176 189 203 196 210 210 214 206 204 217 215 228 229 224 233 237 245 259 268 279 279 266 260 270 271 269 270 268 275 275 273 270 268 261 252
234 205 207 203 196 177 194 199 220 217 212 221 224 227 233 236 224 217 223 233 229 231 235 236 245 253 267 279 282 279 266 258 262 271 271 270 267 271 274 276 276 264 258
245 230 204 207 192 204 207 221 225 237 240 241 237 237 236 235 245 244 241 239 237 236 237 240 240 248 259 266 274 278 273 258 266 277 273 270 272 269 273 272 271 273 268
280 253 239 204 187 177 195 243 245 251 248 257 267 253 238 239 238 243 241 237 234 238 244 241 240 246 252 258 269 280 281 269 259 260 273 269 278 271 268 271 271 272 269
326 334 347 316 259 229 224 254 273 261 259 267 273 269 256 241 237 231 232 240 235 233 236 240 243 243 244 250 259 268 273 273 271 261 259 274 272 268 273 269 270 267 264
302 311 320 312 296 286 270 247 250 257 251 263 269 266 265 261 231 224 227 230 240 240 238 239 240 246 246 247 253 262 271 277 276 277 269 262 270 273 277 266 266 267 263
288 284 288 296 317 354 92 165 237 310 276 282 299 293 271 263 246 242 238 244 241 241 241 244 244 244 247 249 252 256 260 269 274 281 277 269 261 254 265 267 264 268 263
264 256 269 251 285 318 320 342 307 295 289 280 279 279 281 275 268 261 259 242 241 247 250 253 255 254 250 249 249 251 259 266 273 276 281 272 269 261 258 265 261 260 262
324 199 175 249 270 293 308 313 296 283 281 279 277 273 274 273 269 270 267 264 259 256 256 257 255 254 253 253 253 255 258 266 266 270 274 271 269 266 254 250 259 258 251
326 322 316 298 300 298 305 299 289 288 282 275 271 270 270 266 265 265 265 262 260 258 257 255 254 254 254 254 256 259 257 258 262 266 272 271 268 267 262 251 252 255 256
289 305 301 286 288 291 292 280 276 276 275 275 274 273 271 272 271 269 267 265 261 261 260 257 255 255 256 253 255 256 253 256 259 262 269 268 268 269 261 251 248 250 250
305 298 291 287 286 290 285 280 274 270 276 277 275 274 274 273 268 265 266 266 262 261 258 257 256 254 254 253 252 250 251 251 254 258 264 266 270 264 264 245 244 249 254
310 307 307 306 303 297 292 287 280 277 272 272 272 272 270 266 266 265 264 261 263 261 265 261 257 252 251 251 247 251 250 250 254 254 256 262 259 262 261 253 249 246 250
302 298 298 298 291 294 293 283 280 283 281 276 271 271 273 269 267 267 270 271 266 265 265 258 256 255 251 254 264 262 254 254 259 261 263 261 258 248 259 256 245 243 245
299 297 295 294 291 289 287 284 277 269 271 273 273 272 270 272 270 269 267 263 261 258 257 257 256 258 253 250 250 253 251 257 259 258 257 252 254 252 244 249 248 242 243
302 299 294 292 290 284 278 278 279 280 277 278 275 273 274 274 274 271 266 259 258 254 253 252 254 250 254 247 245 253 255 252 256 251 248 248 247 245 242 244 241 232 231
294 290 288 285 288 291 291 288 285 285 284 279 276 274 274 274 273 272 273 271 268 262 250 248 250 247 242 242 247 239 240 244 248 237 238 246 252 243 236 236 228 218 219